TimeCST,TemperatureF,Dew PointF,Humidity,Sea Level PressureIn,VisibilityMPH,Wind Direction,Wind SpeedMPH,Gust SpeedMPH,PrecipitationIn,Events,Conditions,WindDirDegrees,DateUTC
12:15 AM,67.1,64.4,91,30.01,7.0,South,10.4,16.1,N/A,,Overcast,170,2014-02-17 06:15:00
12:35 AM,67.1,64.4,91,30.00,7.0,South,11.5,-,N/A,,Overcast,170,2014-02-17 06:35:00
12:55 AM,67.3,64.4,90,30.00,7.0,South,10.4,17.3,N/A,,Overcast,170,2014-02-17 06:55:00
1:15 AM,67.3,64.6,91,30.00,7.0,South,12.7,-,N/A,,Overcast,170,2014-02-17 07:15:00
1:35 AM,67.3,64.6,91,30.00,7.0,South,12.7,-,N/A,,Overcast,170,2014-02-17 07:35:00
1:55 AM,67.6,64.4,89,30.00,7.0,South,13.8,-,N/A,,Overcast,180,2014-02-17 07:55:00
2:15 AM,68.0,64.4,88,29.99,10.0,South,13.8,-,N/A,,Overcast,180,2014-02-17 08:15:00
2:35 AM,68.0,64.4,88,29.99,7.0,South,12.7,-,N/A,,Overcast,180,2014-02-17 08:35:00
2:55 AM,68.0,63.9,87,29.98,10.0,South,13.8,20.7,N/A,,Overcast,190,2014-02-17 08:55:00
3:15 AM,67.8,63.5,86,29.98,10.0,South,12.7,20.7,N/A,,Overcast,190,2014-02-17 09:15:00
3:35 AM,67.1,63.7,89,29.98,7.0,South,11.5,19.6,N/A,,Mostly Cloudy,190,2014-02-17 09:35:00
3:55 AM,66.6,63.5,90,29.98,7.0,South,11.5,-,N/A,,Mostly Cloudy,180,2014-02-17 09:55:00
4:15 AM,66.4,62.8,88,29.97,7.0,South,13.8,18.4,N/A,,Mostly Cloudy,190,2014-02-17 10:15:00
4:35 AM,66.2,62.6,88,29.97,10.0,South,11.5,-,N/A,,Mostly Cloudy,190,2014-02-17 10:35:00
4:55 AM,66.2,62.6,88,29.98,7.0,South,12.7,-,N/A,,Overcast,190,2014-02-17 10:55:00
5:15 AM,66.4,61.9,85,29.98,10.0,SSW,11.5,-,N/A,,Overcast,200,2014-02-17 11:15:00
5:35 AM,66.2,61.9,86,29.98,10.0,South,16.1,-,N/A,,Overcast,190,2014-02-17 11:35:00
5:55 AM,65.5,61.7,88,29.98,10.0,South,12.7,-,N/A,,Overcast,190,2014-02-17 11:55:00
6:15 AM,65.3,61.9,89,29.98,7.0,SSW,12.7,-,N/A,,Overcast,200,2014-02-17 12:15:00
6:35 AM,64.9,61.7,89,29.99,7.0,SSW,11.5,18.4,N/A,,Mostly Cloudy,200,2014-02-17 12:35:00
6:55 AM,64.4,61.5,90,29.99,7.0,SSW,10.4,-,N/A,,Mostly Cloudy,200,2014-02-17 12:55:00
7:15 AM,64.4,61.7,91,30.00,7.0,SSW,9.2,-,N/A,,Scattered Clouds,200,2014-02-17 13:15:00
7:35 AM,64.0,61.3,91,30.00,5.0,SSW,9.2,-,N/A,,Mostly Cloudy,200,2014-02-17 13:35:00
7:55 AM,64.9,61.9,90,30.00,7.0,SSW,11.5,-,N/A,,Mostly Cloudy,200,2014-02-17 13:55:00
8:15 AM,65.7,62.4,89,30.00,7.0,SSW,12.7,-,N/A,,Scattered Clouds,210,2014-02-17 14:15:00
8:35 AM,67.8,63.1,85,30.02,10.0,SW,10.4,-,N/A,,Clear,220,2014-02-17 14:35:00
8:55 AM,69.4,63.3,81,30.03,10.0,SSW,12.7,20.7,N/A,,Clear,210,2014-02-17 14:55:00
9:15 AM,71.8,63.3,75,30.04,10.0,SW,16.1,20.7,N/A,,Clear,220,2014-02-17 15:15:00
9:35 AM,72.0,62.6,72,30.05,10.0,SSW,16.1,23.0,N/A,,Clear,210,2014-02-17 15:35:00
9:55 AM,74.5,63.1,68,30.05,10.0,SSW,13.8,21.9,N/A,,Clear,210,2014-02-17 15:55:00
10:15 AM,75.2,63.1,66,30.06,10.0,South,19.6,25.3,N/A,,Clear,190,2014-02-17 16:15:00
10:35 AM,75.2,62.8,65,30.06,10.0,SSW,17.3,25.3,N/A,,Scattered Clouds,200,2014-02-17 16:35:00
10:55 AM,75.9,63.7,66,30.06,10.0,SSW,15.0,24.2,N/A,,Mostly Cloudy,200,2014-02-17 16:55:00
11:15 AM,74.8,63.5,68,30.06,10.0,SSW,17.3,25.3,N/A,,Mostly Cloudy,210,2014-02-17 17:15:00
11:35 AM,75.7,63.9,66,30.06,10.0,South,17.3,-,N/A,,Mostly Cloudy,190,2014-02-17 17:35:00
11:55 AM,76.3,64.2,66,30.06,10.0,SSW,16.1,-,N/A,,Overcast,210,2014-02-17 17:55:00
12:15 PM,76.6,63.5,64,30.06,10.0,SSW,16.1,23.0,N/A,,Mostly Cloudy,210,2014-02-17 18:15:00
12:35 PM,77.7,64.6,64,30.04,10.0,SSW,12.7,24.2,N/A,,Mostly Cloudy,200,2014-02-17 18:35:00
12:55 PM,77.5,63.7,62,30.06,10.0,WSW,11.5,-,N/A,,Overcast,240,2014-02-17 18:55:00
1:15 PM,77.0,63.7,63,30.05,10.0,SSW,10.4,18.4,N/A,,Overcast,200,2014-02-17 19:15:00
1:35 PM,78.6,64.0,61,30.02,10.0,South,16.1,23.0,N/A,,Mostly Cloudy,170,2014-02-17 19:35:00
1:55 PM,77.7,63.7,62,30.02,10.0,South,11.5,21.9,N/A,,Mostly Cloudy,190,2014-02-17 19:55:00
2:15 PM,79.3,64.4,60,30.02,10.0,South,13.8,21.9,N/A,,Mostly Cloudy,180,2014-02-17 20:15:00
2:35 PM,78.6,64.6,62,30.02,10.0,South,13.8,23.0,N/A,,Scattered Clouds,180,2014-02-17 20:35:00
2:55 PM,76.5,64.4,66,30.02,10.0,SSW,15.0,19.6,N/A,,Overcast,200,2014-02-17 20:55:00
3:15 PM,77.7,64.6,64,30.01,10.0,South,13.8,19.6,N/A,,Mostly Cloudy,170,2014-02-17 21:15:00
3:35 PM,77.0,64.2,65,30.02,10.0,SSW,12.7,17.3,N/A,,Mostly Cloudy,200,2014-02-17 21:35:00
3:55 PM,78.3,65.3,64,30.02,10.0,SSE,13.8,19.6,N/A,,Mostly Cloudy,150,2014-02-17 21:55:00
4:15 PM,75.0,65.5,72,30.02,10.0,ESE,15.0,18.4,N/A,,Overcast,120,2014-02-17 22:15:00
4:35 PM,70.7,65.5,83,30.02,10.0,ESE,12.7,-,N/A,,Overcast,120,2014-02-17 22:35:00
4:55 PM,70.9,65.8,84,30.03,10.0,ESE,16.1,-,N/A,,Scattered Clouds,120,2014-02-17 22:55:00
5:15 PM,70.2,65.7,86,30.03,10.0,ESE,15.0,-,N/A,,Clear,120,2014-02-17 23:15:00
5:35 PM,70.3,66.2,87,30.04,7.0,ESE,15.0,-,N/A,,Clear,120,2014-02-17 23:35:00
5:55 PM,67.6,64.8,90,30.04,7.0,ESE,15.0,-,N/A,,Clear,120,2014-02-17 23:55:00
6:15 PM,66.2,64.2,93,30.05,7.0,ESE,13.8,-,N/A,,Scattered Clouds,120,2014-02-18 00:15:00
6:35 PM,64.8,63.5,96,30.05,5.0,ESE,12.7,-,N/A,,Overcast,120,2014-02-18 00:35:00
6:55 PM,64.4,63.1,96,30.06,5.0,ESE,11.5,-,N/A,,Overcast,120,2014-02-18 00:55:00
7:15 PM,64.0,63.0,96,30.06,1.2,ESE,10.4,-,N/A,,Overcast,120,2014-02-18 01:15:00
7:35 PM,63.3,62.4,97,30.07,1.0,ESE,11.5,-,N/A,,Overcast,120,2014-02-18 01:35:00
7:55 PM,62.2,61.3,97,30.08,0.5,ESE,9.2,-,N/A,Fog,Fog,110,2014-02-18 01:55:00
8:15 PM,62.1,61.3,97,30.08,0.8,ESE,6.9,-,N/A,,Overcast,120,2014-02-18 02:15:00
8:35 PM,61.9,61.2,97,30.09,0.5,ESE,6.9,-,N/A,Fog,Fog,120,2014-02-18 02:35:00
8:55 PM,61.9,61.2,97,30.09,0.5,ESE,4.6,-,N/A,Fog,Fog,120,2014-02-18 02:55:00
9:15 PM,61.9,61.2,97,30.10,0.5,ESE,3.5,-,N/A,Fog,Fog,120,2014-02-18 03:15:00
9:35 PM,61.9,61.2,97,30.10,0.5,SE,4.6,-,N/A,Fog,Fog,130,2014-02-18 03:35:00
9:55 PM,62.8,62.1,97,30.11,0.2,SE,4.6,-,N/A,Fog,Fog,130,2014-02-18 03:55:00
10:15 PM,63.5,62.8,97,30.11,0.2,ESE,4.6,-,N/A,Fog,Fog,120,2014-02-18 04:15:00
10:35 PM,63.7,63.0,97,30.11,0.5,ESE,4.6,-,N/A,Fog,Fog,120,2014-02-18 04:35:00
10:55 PM,63.9,63.5,99,30.11,0.8,ESE,3.5,-,N/A,,Overcast,120,2014-02-18 04:55:00
11:15 PM,65.5,64.9,98,30.10,4.0,SSE,8.1,-,N/A,,Overcast,150,2014-02-18 05:15:00
11:35 PM,65.7,65.3,99,30.10,7.0,SSE,9.2,-,N/A,,Overcast,150,2014-02-18 05:35:00
11:55 PM,65.8,65.1,98,30.10,7.0,SSE,6.9,-,N/A,,Overcast,150,2014-02-18 05:55:00